Radiation Dose at Monitoring Post of Fukushima Daini Nuclear Power Station
Date,Time,MP-1(microSv/h),MP-2(microSv/h),MP-3(microSv/h),MP-4(microSv/h),MP-5(microSv/h),MP-6(microSv/h),MP-7(microSv/h),Wind Direction,Wind Velocity(m/s),Rain
2015/08/24,00:00,0.494,0.280,0.504,0.458,0.444,0.224,0.194,north,9.0,Yes
2015/08/24,00:10,0.488,0.280,0.500,0.460,0.451,0.223,0.193,north,8.5,Yes
2015/08/24,00:20,0.493,0.279,0.505,0.456,0.446,0.222,0.193,north,11.0,Yes
2015/08/24,00:30,0.493,0.281,0.503,0.461,0.449,0.224,0.192,north,8.9,Yes
2015/08/24,00:40,0.493,0.280,0.501,0.456,0.450,0.223,0.193,north,8.4,Yes
2015/08/24,00:50,0.495,0.279,0.505,0.457,0.447,0.224,0.193,north,10.0,Yes
2015/08/24,01:00,0.489,0.281,0.498,0.460,0.450,0.226,0.192,north,8.4,Yes
2015/08/24,01:10,0.495,0.279,0.503,0.455,0.446,0.224,0.194,north,9.0,Yes
2015/08/24,01:20,0.492,0.281,0.503,0.460,0.449,0.225,0.193,north,10.4,Yes
2015/08/24,01:30,0.489,0.280,0.496,0.458,0.448,0.222,0.193,north,9.1,Yes
2015/08/24,01:40,0.493,0.281,0.504,0.454,0.444,0.225,0.193,north,9.2,Yes
2015/08/24,01:50,0.487,0.280,0.499,0.458,0.449,0.225,0.193,north,9.5,Yes
2015/08/24,02:00,0.491,0.278,0.500,0.453,0.445,0.225,0.192,north,8.4,Yes
2015/08/24,02:10,0.489,0.281,0.501,0.459,0.447,0.225,0.192,north,8.7,Yes
2015/08/24,02:20,0.488,0.279,0.497,0.455,0.449,0.223,0.193,north,8.0,Yes
2015/08/24,02:30,0.491,0.282,0.503,0.454,0.446,0.225,0.192,north,9.4,Yes
2015/08/24,02:40,0.487,0.280,0.498,0.459,0.450,0.224,0.193,north,8.3,Yes
2015/08/24,02:50,0.493,0.279,0.500,0.455,0.445,0.223,0.194,north,8.6,Yes
2015/08/24,03:00,0.491,0.282,0.501,0.459,0.448,0.225,0.192,north,9.1,Yes
2015/08/24,03:10,0.488,0.278,0.495,0.456,0.448,0.225,0.192,north,8.3,Yes
2015/08/24,03:20,0.492,0.281,0.503,0.454,0.446,0.223,0.192,north,8.8,Yes
2015/08/24,03:30,0.488,0.279,0.498,0.459,0.449,0.224,0.193,north,8.4,Yes
2015/08/24,03:40,0.491,0.280,0.499,0.455,0.444,0.223,0.192,north,9.1,Yes
2015/08/24,03:50,0.491,0.282,0.500,0.457,0.449,0.222,0.193,north,9.1,Yes
2015/08/24,04:00,0.489,0.279,0.496,0.455,0.444,0.222,0.193,north,8.8,Yes
2015/08/24,04:10,0.493,0.280,0.502,0.453,0.449,0.223,0.192,north-northwest,9.3,Yes
2015/08/24,04:20,0.487,0.280,0.497,0.458,0.448,0.224,0.192,north-northwest,8.1,Yes
2015/08/24,04:30,0.493,0.281,0.500,0.454,0.447,0.222,0.191,north-northwest,8.6,Yes
2015/08/24,04:40,0.491,0.279,0.501,0.458,0.450,0.225,0.193,north,9.6,Yes
2015/08/24,04:50,0.487,0.277,0.497,0.455,0.444,0.222,0.192,north-northwest,9.3,Yes
2015/08/24,05:00,0.491,0.279,0.501,0.454,0.451,0.223,0.193,north-northwest,9.5,Yes
2015/08/24,05:10,0.487,0.279,0.496,0.456,0.445,0.222,0.193,north-northwest,8.6,Yes
2015/08/24,05:20,0.493,0.281,0.501,0.455,0.451,0.222,0.193,north-northwest,8.1,Yes
2015/08/24,05:30,0.489,0.278,0.499,0.459,0.445,0.222,0.193,north,9.0,Yes
2015/08/24,05:40,0.489,0.280,0.498,0.453,0.447,0.222,0.192,north-northwest,9.2,Yes
2015/08/24,05:50,0.489,0.279,0.501,0.455,0.447,0.223,0.192,north-northwest,8.6,Yes
2015/08/24,06:00,0.488,0.279,0.496,0.454,0.444,0.223,0.192,north-northwest,8.3,Yes
2015/08/24,06:10,0.491,0.279,0.502,0.455,0.450,0.222,0.191,north-northwest,7.5,Yes
2015/08/24,06:20,0.486,0.278,0.496,0.458,0.444,0.223,0.192,north-northwest,8.1,Yes
2015/08/24,06:30,0.492,0.280,0.501,0.452,0.451,0.221,0.192,north,8.6,Yes
2015/08/24,06:40,0.489,0.278,0.500,0.457,0.445,0.223,0.193,north,8.6,Yes
2015/08/24,06:50,0.487,0.280,0.498,0.454,0.448,0.223,0.192,north,7.3,No
2015/08/24,07:00,0.492,0.278,0.503,0.457,0.446,0.223,0.191,north,7.5,Yes
2015/08/24,07:10,0.486,0.278,0.498,0.456,0.446,0.223,0.192,north-northwest,7.7,Yes
2015/08/24,07:20,0.492,0.279,0.503,0.454,0.449,0.223,0.192,north,8.6,Yes
2015/08/24,07:30,0.485,0.278,0.498,0.457,0.444,0.224,0.191,north,9.8,Yes
2015/08/24,07:40,0.490,0.280,0.501,0.452,0.450,0.222,0.191,north,8.4,Yes
2015/08/24,07:50,0.489,0.279,0.502,0.457,0.445,0.222,0.191,north,8.0,Yes
2015/08/24,08:00,0.487,0.279,0.497,0.455,0.449,0.223,0.191,north,8.4,Yes
2015/08/24,08:10,0.490,0.279,0.504,0.454,0.446,0.223,0.191,north,8.5,Yes
2015/08/24,08:20,0.484,0.280,0.498,0.456,0.445,0.223,0.192,north-northwest,7.9,Yes
2015/08/24,08:30,0.491,0.279,0.500,0.454,0.448,0.222,0.192,north-northwest,8.6,Yes
2015/08/24,08:40,0.487,0.278,0.501,0.459,0.445,0.223,0.192,north-northwest,8.2,Yes
2015/08/24,08:50,0.489,0.280,0.497,0.457,0.450,0.223,0.191,north,9.4,Yes
2015/08/24,09:00,0.491,0.276,0.503,0.454,0.445,0.221,0.191,north,8.1,No
2015/08/24,09:10,0.485,0.278,0.499,0.458,0.446,0.222,0.192,north-northwest,7.9,Yes
2015/08/24,09:20,0.492,0.280,0.497,0.452,0.448,0.221,0.192,north,7.1,No
2015/08/24,09:30,0.490,0.276,0.501,0.455,0.444,0.222,0.190,north,9.8,Yes
2015/08/24,09:40,0.484,0.280,0.498,0.458,0.449,0.221,0.192,north,8.7,No
2015/08/24,09:50,0.492,0.278,0.502,0.453,0.449,0.222,0.191,north,10.1,No
2015/08/24,10:00,0.491,0.278,0.504,0.457,0.444,0.222,0.190,north,10.2,No
2015/08/24,10:10,0.485,0.278,0.496,0.459,0.451,0.223,0.192,north,10.6,No
2015/08/24,10:20,0.493,0.279,0.503,0.451,0.448,0.222,0.191,north-northeast,11.1,Yes
2015/08/24,10:30,0.491,0.277,0.501,0.460,0.444,0.222,0.191,north,10.7,Yes
2015/08/24,10:40,0.487,0.282,0.498,0.457,0.450,0.223,0.191,north,9.3,Yes
2015/08/24,10:50,0.493,0.278,0.504,0.456,0.447,0.221,0.192,north,9.3,Yes
2015/08/24,11:00,0.490,0.278,0.503,0.461,0.448,0.224,0.191,north,8.7,Yes
2015/08/24,11:10,0.491,0.282,0.500,0.456,0.452,0.224,0.192,north,7.0,Yes
2015/08/24,11:20,0.496,0.279,0.506,0.458,0.445,0.223,0.192,north,7.8,No
2015/08/24,11:30,0.489,0.281,0.502,0.459,0.453,0.223,0.192,north,12.1,Yes
2015/08/24,11:40,0.490,0.280,0.499,0.454,0.449,0.222,0.193,north,11.5,Yes
2015/08/24,11:50,0.496,0.278,0.506,0.457,0.444,0.223,0.191,north,11.5,Yes
2015/08/24,12:00,0.490,0.281,0.500,0.460,0.451,0.224,0.191,north,10.6,Yes
2015/08/24,12:10,0.490,0.281,0.500,0.456,0.451,0.223,0.193,north-northeast,11.2,No
2015/08/24,12:20,0.494,0.278,0.506,0.457,0.445,0.223,0.192,north-northeast,11.2,No
2015/08/24,12:30,0.490,0.282,0.502,0.463,0.451,0.225,0.192,north-northeast,7.8,No
2015/08/24,12:40,0.491,0.280,0.499,0.457,0.450,0.223,0.191,north-northeast,9.4,No
2015/08/24,12:50,0.496,0.278,0.504,0.455,0.446,0.223,0.193,north,9.7,No
2015/08/24,13:00,0.491,0.282,0.502,0.460,0.448,0.223,0.193,north,8.9,No
2015/08/24,13:10,0.489,0.282,0.500,0.459,0.451,0.224,0.191,north,9.9,Yes
2015/08/24,13:20,0.497,0.279,0.506,0.456,0.449,0.225,0.193,north-northeast,8.7,Yes
2015/08/24,13:30,0.494,0.281,0.504,0.462,0.447,0.224,0.195,north,11.0,Yes
2015/08/24,13:40,0.490,0.280,0.499,0.461,0.452,0.226,0.192,-,-,No
2015/08/24,13:50,0.498,0.280,0.504,0.458,0.448,0.224,0.191,-,-,No
2015/08/24,14:00,0.495,0.280,0.504,0.456,0.447,0.223,0.194,-,-,No
2015/08/24,14:10,0.491,0.282,0.500,0.463,0.454,0.225,0.193,-,-,Yes
2015/08/24,14:20,0.496,0.280,0.501,0.458,0.451,0.224,0.191,-,-,No
2015/08/24,14:30,0.495,0.280,0.507,0.457,0.447,0.225,0.192,-,-,No
2015/08/24,14:40,0.492,0.282,0.500,0.463,0.452,0.225,0.194,-,-,Yes
2015/08/24,14:50,0.497,0.279,0.501,0.460,0.451,0.225,0.193,-,-,Yes
2015/08/24,15:00,0.496,0.282,0.509,0.459,0.449,0.224,0.193,-,-,No
2015/08/24,15:10,0.493,0.282,0.500,0.465,0.455,0.225,0.195,-,-,No
2015/08/24,15:20,0.499,0.279,0.507,0.458,0.450,0.226,0.193,-,-,No
2015/08/24,15:30,0.496,0.282,0.507,0.460,0.451,0.224,0.194,-,-,No
2015/08/24,15:40,0.492,0.281,0.500,0.463,0.455,0.224,0.195,-,-,No
2015/08/24,15:50,0.498,0.280,0.508,0.458,0.447,0.225,0.194,-,-,No
2015/08/24,16:00,0.495,0.283,0.507,0.460,0.448,0.225,0.193,-,-,No
2015/08/24,16:10,0.492,0.280,0.498,0.463,0.452,0.225,0.195,-,-,No
2015/08/24,16:20,0.500,0.280,0.508,0.457,0.449,0.226,0.195,-,-,No
2015/08/24,16:30,0.494,0.281,0.503,0.461,0.453,0.224,0.193,-,-,No
2015/08/24,16:40,0.492,0.280,0.502,0.462,0.453,0.225,0.196,-,-,No
2015/08/24,16:50,0.501,0.281,0.508,0.458,0.448,0.226,0.194,-,-,No
2015/08/24,17:00,0.496,0.282,0.503,0.463,0.455,0.224,0.194,north-northeast,10.9,No
2015/08/24,17:10,0.494,0.280,0.503,0.462,0.451,0.226,0.196,north-northeast,11.1,No
2015/08/24,17:20,0.500,0.283,0.509,0.459,0.449,0.225,0.193,north-northeast,11.4,No
2015/08/24,17:30,0.494,0.282,0.501,0.465,0.455,0.226,0.193,north-northeast,12.5,No
2015/08/24,17:40,0.499,0.281,0.507,0.460,0.451,0.225,0.196,north,9.2,No
2015/08/24,17:50,0.500,0.282,0.508,0.461,0.450,0.225,0.193,north,8.0,No
2015/08/24,18:00,0.494,0.281,0.503,0.465,0.453,0.224,0.194,north-northeast,9.0,No
2015/08/24,18:10,0.499,0.282,0.509,0.458,0.447,0.225,0.195,north,8.9,No
2015/08/24,18:20,0.498,0.284,0.505,0.463,0.454,0.224,0.194,north,8.3,No
2015/08/24,18:30,0.492,0.281,0.503,0.464,0.451,0.226,0.196,north,7.8,No
2015/08/24,18:40,0.501,0.283,0.508,0.461,0.450,0.225,0.195,north,7.1,No
2015/08/24,18:50,0.496,0.280,0.504,0.465,0.457,0.226,0.195,north,6.5,No
2015/08/24,19:00,0.495,0.282,0.506,0.458,0.448,0.227,0.195,north,6.5,No
2015/08/24,19:10,0.499,0.283,0.508,0.462,0.453,0.225,0.194,north-northwest,6.0,No
2015/08/24,19:20,0.495,0.281,0.503,0.464,0.451,0.226,0.197,north,7.2,No
2015/08/24,19:30,0.500,0.283,0.510,0.459,0.451,0.225,0.195,north,6.4,No
2015/08/24,19:40,0.497,0.281,0.507,0.465,0.454,0.226,0.195,north,6.8,Yes
2015/08/24,19:50,0.496,0.281,0.505,0.460,0.450,0.225,0.195,north,6.8,No
2015/08/24,20:00,0.502,0.282,0.508,0.462,0.454,0.225,0.194,north,7.6,No
2015/08/24,20:10,0.495,0.280,0.503,0.464,0.450,0.227,0.195,north,6.3,No
2015/08/24,20:20,0.500,0.283,0.509,0.462,0.452,0.225,0.195,north,6.4,No
2015/08/24,20:30,0.499,0.280,0.506,0.465,0.452,0.226,0.195,north,6.5,No
2015/08/24,20:40,0.494,0.281,0.506,0.460,0.448,0.226,0.195,north,6.0,No
2015/08/24,20:50,0.500,0.281,0.509,0.464,0.455,0.225,0.194,north,7.0,Yes
2015/08/24,21:00,0.497,0.280,0.503,0.463,0.449,0.226,0.195,north,7.2,Yes
2015/08/24,21:10,0.498,0.283,0.510,0.461,0.452,0.226,0.195,north,7.6,Yes
2015/08/24,21:20,0.501,0.281,0.507,0.466,0.452,0.227,0.196,north,8.6,Yes
2015/08/24,21:30,0.496,0.283,0.505,0.460,0.452,0.227,0.195,north,7.3,Yes
2015/08/24,21:40,0.502,0.282,0.507,0.465,0.453,0.226,0.195,north,7.7,Yes
2015/08/24,21:50,0.495,0.283,0.506,0.464,0.450,0.228,0.196,north,8.2,No
2015/08/24,22:00,0.499,0.282,0.509,0.463,0.454,0.225,0.195,north,7.5,No
2015/08/24,22:10,0.500,0.281,0.505,0.465,0.449,0.226,0.196,north,8.9,Yes
2015/08/24,22:20,0.495,0.284,0.510,0.461,0.453,0.226,0.195,north,9.0,Yes
2015/08/24,22:30,0.501,0.280,0.508,0.466,0.450,0.227,0.195,north,8.0,No
2015/08/24,22:40,0.494,0.284,0.505,0.461,0.454,0.226,0.194,north,8.8,No
2015/08/24,22:50,0.501,0.282,0.507,0.463,0.452,0.227,0.195,north,8.6,Yes
2015/08/24,23:00,0.497,0.284,0.502,0.463,0.452,0.227,0.195,north,8.3,Yes
2015/08/24,23:10,0.499,0.282,0.510,0.462,0.454,0.225,0.196,north,8.3,Yes
2015/08/24,23:20,0.501,0.281,0.506,0.465,0.449,0.227,0.195,north,8.5,No
2015/08/24,23:30,0.496,0.283,0.508,0.460,0.454,0.225,0.195,north,9.5,No
2015/08/24,23:40,0.501,0.282,0.508,0.465,0.449,0.228,0.195,north,7.7,No
2015/08/24,23:50,0.496,0.282,0.505,0.461,0.455,0.226,0.195,north,8.9,Yes
